When you browse on this site, cookies collect data to enhance your experience and personalize the content and advertising you see.
Visit our Privacy Policy to learn more. By continuing to use the site, you agree to this use of cookies and data.
  • In Österreich
  • Länderverzeichnis
  • Für 7 Tage
  • Wassertemperatur
  • Satellitenkarten
  • Wetterkarte
  • News
  • Widgets
  • user-avatar
    Anmelden

    Stündliche Wetter Kopina

    Heute, 20 Juli, Samstag

    Zeit Temperatur Niederschläge Wind Luftdruck Luftfeuchtigkeit
    00:00 +16°C° 0.2 mm 1 m/S 754 mmHg 91%
    01:00 +16°C° 0 mm 1 m/S 754 mmHg 91%
    02:00 +16°C° 0.1 mm 1 m/S 754 mmHg 92%
    03:00 +15°C° 0.1 mm 0 m/S 754 mmHg 92%
    04:00 +14°C° 0.1 mm 0 m/S 754 mmHg 92%
    05:00 +16°C° 0 mm 0 m/S 754 mmHg 89%
    06:00 +17°C° 0 mm 0 m/S 754 mmHg 85%
    07:00 +19°C° 0 mm 0 m/S 754 mmHg 81%
    08:00 +21°C° 0 mm 0 m/S 755 mmHg 76%
    09:00 +22°C° 0 mm 0 m/S 755 mmHg 70%
    10:00 +24°C° 0 mm 0 m/S 755 mmHg 64%
    11:00 +26°C° 0 mm 1 m/S 755 mmHg 61%
    12:00 +27°C° 0 mm 1 m/S 755 mmHg 57%
    13:00 +27°C° 0 mm 2 m/S 755 mmHg 53%
    14:00 +27°C° 0 mm 2 m/S 755 mmHg 56%
    15:00 +27°C° 0 mm 2 m/S 755 mmHg 59%
    16:00 +26°C° 0 mm 2 m/S 755 mmHg 61%
    17:00 +25°C° 0 mm 2 m/S 755 mmHg 68%
    18:00 +24°C° 0 mm 2 m/S 755 mmHg 74%
    19:00 +23°C° 0 mm 2 m/S 754 mmHg 80%
    20:00 +21°C° 0 mm 2 m/S 755 mmHg 81%
    21:00 +20°C° 0 mm 3 m/S 755 mmHg 83%
    22:00 +19°C° 0 mm 3 m/S 755 mmHg 84%
    23:00 +19°C° 0 mm 3 m/S 755 mmHg 84%

    Morgen, 21 Juli, Sonntag

    Zeit Temperatur Niederschläge Wind Luftdruck Luftfeuchtigkeit
    00:00 +19°C° 0 mm 3 m/S 755 mmHg 83%
    01:00 +18°C° 0 mm 3 m/S 755 mmHg 83%
    02:00 +18°C° 0 mm 3 m/S 754 mmHg 83%
    03:00 +18°C° 0 mm 3 m/S 754 mmHg 83%
    04:00 +18°C° 0 mm 3 m/S 754 mmHg 83%
    05:00 +19°C° 0 mm 3 m/S 754 mmHg 80%
    06:00 +21°C° 0 mm 3 m/S 754 mmHg 78%
    07:00 +22°C° 0 mm 4 m/S 754 mmHg 75%
    08:00 +23°C° 0.1 mm 4 m/S 754 mmHg 72%
    09:00 +25°C° 0.1 mm 4 m/S 754 mmHg 69%
    10:00 +26°C° 0.1 mm 4 m/S 754 mmHg 66%
    11:00 +26°C° 1.8 mm 4 m/S 754 mmHg 71%
    12:00 +26°C° 1.8 mm 3 m/S 754 mmHg 75%
    13:00 +25°C° 1.8 mm 3 m/S 754 mmHg 80%
    14:00 +25°C° 2.1 mm 3 m/S 754 mmHg 82%
    15:00 +23°C° 2.1 mm 4 m/S 754 mmHg 83%
    16:00 +23°C° 2.1 mm 5 m/S 754 mmHg 85%
    17:00 +22°C° 0.2 mm 5 m/S 754 mmHg 87%
    18:00 +21°C° 0.2 mm 4 m/S 755 mmHg 89%
    19:00 +19°C° 0.2 mm 3 m/S 755 mmHg 90%
    20:00 +19°C° 0 mm 3 m/S 755 mmHg 91%
    21:00 +18°C° 0 mm 3 m/S 755 mmHg 92%
    22:00 +17°C° 0 mm 2 m/S 756 mmHg 92%
    23:00 +17°C° 0 mm 3 m/S 756 mmHg 93%

    übermorgen, 22 Juli, Montag

    Zeit Temperatur Niederschläge Wind Luftdruck Luftfeuchtigkeit
    00:00 +16°C° 0 mm 3 m/S 756 mmHg 94%
    01:00 +15°C° 0 mm 4 m/S 756 mmHg 95%
    02:00 +15°C° 0 mm 4 m/S 756 mmHg 95%
    03:00 +15°C° 0 mm 4 m/S 756 mmHg 95%
    04:00 +15°C° 0 mm 4 m/S 756 mmHg 95%
    05:00 +16°C° 0.1 mm 5 m/S 757 mmHg 92%
    06:00 +17°C° 0.1 mm 6 m/S 757 mmHg 89%
    07:00 +17°C° 0.1 mm 6 m/S 757 mmHg 85%
    08:00 +19°C° 0 mm 6 m/S 757 mmHg 80%
    09:00 +20°C° 0 mm 6 m/S 758 mmHg 76%
    10:00 +20°C° 0 mm 6 m/S 758 mmHg 71%
    11:00 +21°C° 0 mm 6 m/S 758 mmHg 68%
    12:00 +21°C° 0 mm 6 m/S 758 mmHg 65%
    13:00 +22°C° 0 mm 6 m/S 758 mmHg 63%
    14:00 +22°C° 0 mm 6 m/S 758 mmHg 63%
    15:00 +22°C° 0 mm 6 m/S 758 mmHg 64%
    16:00 +21°C° 0 mm 6 m/S 759 mmHg 65%
    17:00 +20°C° 0 mm 5 m/S 758 mmHg 70%
    18:00 +19°C° 0 mm 4 m/S 758 mmHg 75%
    19:00 +18°C° 0 mm 3 m/S 758 mmHg 80%
    20:00 +17°C° 0 mm 3 m/S 758 mmHg 82%
    21:00 +16°C° 0 mm 3 m/S 759 mmHg 85%
    22:00 +14°C° 0 mm 3 m/S 759 mmHg 87%
    23:00 +14°C° 0 mm 3 m/S 759 mmHg 90%

    23 Juli, Dienstag

    Zeit Temperatur Niederschläge Wind Luftdruck Luftfeuchtigkeit
    00:00 +14°C° 0 mm 3 m/S 759 mmHg 92%
    01:00 +14°C° 0 mm 3 m/S 759 mmHg 95%
    02:00 +14°C° 0 mm 3 m/S 758 mmHg 95%
    03:00 +14°C° 0 mm 3 m/S 758 mmHg 96%
    04:00 +13°C° 0 mm 3 m/S 758 mmHg 97%
    05:00 +16°C° 0 mm 3 m/S 758 mmHg 93%
    06:00 +17°C° 0 mm 4 m/S 758 mmHg 90%
    07:00 +18°C° 0 mm 4 m/S 758 mmHg 87%
    08:00 +19°C° 0 mm 4 m/S 758 mmHg 84%
    09:00 +20°C° 0 mm 4 m/S 759 mmHg 80%
    10:00 +21°C° 0 mm 3 m/S 759 mmHg 77%
    11:00 +22°C° 0 mm 4 m/S 759 mmHg 74%
    12:00 +23°C° 0 mm 4 m/S 759 mmHg 71%
    13:00 +23°C° 0 mm 4 m/S 758 mmHg 69%
    14:00 +23°C° 0 mm 4 m/S 758 mmHg 70%
    15:00 +23°C° 0 mm 4 m/S 758 mmHg 72%
    16:00 +22°C° 0 mm 4 m/S 758 mmHg 73%
    17:00 +21°C° 0 mm 3 m/S 758 mmHg 79%
    18:00 +20°C° 0 mm 2 m/S 758 mmHg 84%
    19:00 +19°C° 0 mm 2 m/S 758 mmHg 89%
    20:00 +19°C° 0 mm 1 m/S 758 mmHg 92%
    21:00 +18°C° 0 mm 1 m/S 758 mmHg 94%
    22:00 +16°C° 0 mm 1 m/S 758 mmHg 96%
    23:00 +16°C° 0 mm 1 m/S 758 mmHg 96%

    24 Juli, Mittwoch

    Zeit Temperatur Niederschläge Wind Luftdruck Luftfeuchtigkeit
    00:00 +16°C° 0 mm 1 m/S 758 mmHg 96%
    01:00 +16°C° 0 mm 1 m/S 758 mmHg 96%
    02:00 +16°C° 0 mm 1 m/S 758 mmHg 96%
    03:00 +16°C° 0 mm 1 m/S 758 mmHg 96%
    04:00 +16°C° 0 mm 1 m/S 758 mmHg 96%
    05:00 +18°C° 0 mm 1 m/S 758 mmHg 93%
    06:00 +19°C° 0 mm 2 m/S 758 mmHg 90%
    07:00 +20°C° 0 mm 2 m/S 758 mmHg 86%
    08:00 +23°C° 0 mm 2 m/S 758 mmHg 81%
    09:00 +24°C° 0 mm 2 m/S 758 mmHg 77%
    10:00 +25°C° 0 mm 2 m/S 758 mmHg 72%
    11:00 +26°C° 0.1 mm 3 m/S 758 mmHg 71%
    12:00 +26°C° 0.1 mm 3 m/S 758 mmHg 70%
    13:00 +27°C° 0.1 mm 3 m/S 758 mmHg 70%
    14:00 +26°C° 0 mm 3 m/S 758 mmHg 71%
    15:00 +26°C° 0 mm 3 m/S 758 mmHg 72%
    16:00 +26°C° 0 mm 4 m/S 758 mmHg 73%
    17:00 +24°C° 0 mm 3 m/S 758 mmHg 78%
    18:00 +23°C° 0 mm 2 m/S 758 mmHg 84%
    19:00 +21°C° 0 mm 2 m/S 758 mmHg 89%
    20:00 +21°C° 0 mm 1 m/S 758 mmHg 91%
    21:00 +19°C° 0 mm 1 m/S 758 mmHg 92%
    22:00 +18°C° 0 mm 1 m/S 759 mmHg 94%
    23:00 +18°C° 0 mm 1 m/S 759 mmHg 94%

    25 Juli, Donnerstag

    Zeit Temperatur Niederschläge Wind Luftdruck Luftfeuchtigkeit
    00:00 +16°C° 0 mm 0 m/S 759 mmHg 94%
    01:00 +16°C° 0 mm 0 m/S 759 mmHg 93%
    02:00 +15°C° 0 mm 0 m/S 759 mmHg 94%
    03:00 +15°C° 0 mm 0 m/S 759 mmHg 94%
    04:00 +15°C° 0 mm 0 m/S 759 mmHg 94%
    05:00 +17°C° 0 mm 0 m/S 759 mmHg 89%
    06:00 +18°C° 0 mm 0 m/S 760 mmHg 85%
    07:00 +20°C° 0 mm 0 m/S 760 mmHg 81%
    08:00 +22°C° 0 mm 0 m/S 760 mmHg 75%
    09:00 +23°C° 0 mm 0 m/S 760 mmHg 70%
    10:00 +27°C° 0 mm 1 m/S 760 mmHg 64%
    11:00 +28°C° 0 mm 1 m/S 760 mmHg 62%
    12:00 +28°C° 0 mm 1 m/S 760 mmHg 60%
    13:00 +29°C° 0 mm 1 m/S 760 mmHg 58%
    14:00 +28°C° 0 mm 2 m/S 760 mmHg 60%
    15:00 +28°C° 0 mm 2 m/S 760 mmHg 62%
    16:00 +28°C° 0 mm 3 m/S 760 mmHg 65%
    17:00 +26°C° 0 mm 3 m/S 760 mmHg 71%
    18:00 +24°C° 0 mm 2 m/S 759 mmHg 77%
    19:00 +23°C° 0 mm 2 m/S 759 mmHg 83%
    20:00 +21°C° 0 mm 2 m/S 760 mmHg 86%
    21:00 +20°C° 0 mm 2 m/S 760 mmHg 89%
    22:00 +19°C° 0 mm 2 m/S 760 mmHg 93%
    23:00 +19°C° 0 mm 1 m/S 760 mmHg 92%
    Mehr zeigen